This demonstration page uses our WeatherBlox Daily Observations layout. Learn more.

Left ArrowRight Arrow

Hourly Observations for November 2, 2016

Temp ( °F °C ) Dew Point ( °F °C ) Humidity (%) Winds ( mph kmh ) Pressure ( in mb ) Visibility ( mi km ) Precip ( " mm )
12:53 am 00:53 Clear 61 16 N/A N/A Calm 30.26 1025 10 16 0.00 0.00
1:53 am 01:53 Clear 61 16 N/A N/A Calm 30.27 1025 10 16 0.00 0.00
2:53 am 02:53 Clear 57 14 N/A N/A Calm 30.27 1025 10 16 0.00 0.00
3:53 am 03:53 Clear 57 14 N/A N/A Calm 30.27 1025 9 14 0.00 0.00
4:53 am 04:53 Clear 57 14 N/A N/A Calm 30.27 1025 10 16 0.00 0.00
5:24 am 05:24 Mostly Cloudy 57 14 N/A N/A Calm 30.30 1026 8 13 0.00 0.00
5:53 am 05:53 Cloudy 60 15.6 57 13.9 90 90 Calm 30.28 1026 7 11 0.00 0.00
6:53 am 06:53 Cloudy 61 16.1 59 15 93 93 NNE 3 6 30.30 1026 7 11 0.00 0.00
7:53 am 07:53 Cloudy 63 17.2 60 15.6 90 90 N 3 6 30.32 1027 8 13 0.00 0.00
8:53 am 08:53 Cloudy with Mist and Fog 64 17.8 60 15.6 87 87 NNE 3 6 30.34 1028 5 8 0.00 0.00
9:53 am 09:53 Cloudy 65 18.3 61 16.1 87 87 ENE 6 9 30.35 1028 8 13 0.00 0.00
10:08 am 10:08 Cloudy 66 19 61 16 83 83 E 6 9 30.33 1027 9 14 0.00 0.00
10:53 am 10:53 Cloudy 68 20 60 15.6 76 76 ENE 6 9 30.36 1028 10 16 0.00 0.00
11:14 am 11:14 Cloudy 70 21 61 16 73 73 ENE 7 11 30.36 1028 10 16 0.00 0.00
11:53 am 11:53 Mostly Cloudy 70 21.1 60 15.6 71 71 ESE 5 7 30.36 1028 10 16 0.00 0.00
12:39 pm 12:39 Mostly Cloudy 73 22.8 61 16.1 66 66 SSE 5 7 30.33 1027 10 16 0.00 0.00
12:53 pm 12:53 Mostly Cloudy 72 22.2 61 16.1 68 68 VRB 5 7 30.34 1028 10 16 0.00 0.00
1:32 pm 13:32 Cloudy 73 23 61 16 65 65 VRB 6 9 30.30 1026 10 16 0.00 0.00
1:53 pm 13:53 Mostly Cloudy 74 23.3 61 16.1 64 64 VRB 3 6 30.31 1027 10 16 0.00 0.00
2:03 pm 14:03 Partly Cloudy 73 23 61 16 65 65 Calm 30.30 1026 10 16 0.00 0.00
2:10 pm 14:10 Mostly Cloudy 73 23 61 16 65 65 VRB 5 7 30.30 1026 10 16 0.00 0.00
2:53 pm 14:53 Mostly Cloudy 75 23.9 60 15.6 60 60 VRB 5 7 30.29 1026 10 16 0.00 0.00
3:53 pm 15:53 Mostly Cloudy 77 25 58 14.4 52 52 Calm 30.27 1025 10 16 0.00 0.00
4:00 pm 16:00 Partly Cloudy 77 25 57 14 51 51 ESE 6 9 30.24 1024 10 16 0.00 0.00
4:53 pm 16:53 Partly Cloudy 76 24.4 58 14.4 54 54 E 3 6 30.27 1025 10 16 0.00 0.00
5:53 pm 17:53 Sunny 76 24.4 58 14.4 54 54 E 3 6 30.27 1025 10 16 0.00 0.00
6:53 pm 18:53 Clear 73 22.8 59 15 62 62 Calm 30.26 1025 10 16 0.00 0.00
7:53 pm 19:53 Clear 67 19.4 60 15.6 79 79 Calm 30.27 1025 10 16 0.00 0.00
8:53 pm 20:53 Clear 65 18.3 59 15 81 81 NE 3 6 30.27 1025 10 16 0.00 0.00
9:53 pm 21:53 Clear 62 16.7 59 15 90 90 Calm 30.27 1025 10 16 0.00 0.00
10:53 pm 22:53 Clear 61 16.1 58 14.4 90 90 Calm 30.27 1025 10 16 0.00 0.00
11:53 pm 23:53 Clear 60 15.6 57 13.9 90 90 Calm 30.27 1025 10 16 0.00 0.00

Powered by AerisWeather